GFSGL_con_lsi_000.txt.gz
Lid_Strength_Index
16 16 17 17 18 19 19 20 20 20 21 21 21 21 21 21 21 21 21 21 21 21 20 21 21 20 20 19 19 18 18 17 19 18 16 14 14 14 12 12 11 12 11
16 17 17 18 19 19 20 20 20 21 21 21 22 22 22 22 22 22 22 22 22 23 22 22 22 21 21 20 20 20 20 19 19 20 18 17 16 15 15 14 13 11 11
17 17 18 19 19 20 20 21 21 21 22 22 22 23 23 22 23 22 22 23 23 23 23 22 22 22 22 21 20 20 20 19 19 20 20 18 17 17 15 14 14 13 11
17 17 18 19 19 20 21 21 22 22 22 23 23 23 23 23 23 23 23 23 23 23 22 21 21 21 21 21 20 21 20 20 20 20 20 19 18 15 15 16 15 13 12
17 18 19 20 20 20 21 22 22 23 23 23 23 23 24 24 24 24 23 23 23 22 21 20 20 20 18 18 19 19 18 19 19 19 19 19 17 17 16 15 15 14 13
18 19 19 20 21 21 23 23 23 23 23 23 24 24 24 23 21 20 20 21 21 21 21 20 20 20 19 17 16 15 15 17 17 18 18 17 17 16 15 15 15 15 15
18 19 20 21 22 23 23 23 23 23 23 24 24 24 24 23 21 20 19 20 21 21 21 20 20 19 18 18 16 15 15 14 14 16 17 16 16 14 14 14 14 13 14
19 20 21 22 23 23 23 23 23 23 24 24 24 23 24 23 20 20 19 20 21 21 20 19 19 18 17 16 17 17 16 15 15 14 15 15 15 14 13 13 14 13 12
20 21 21 21 22 23 23 24 23 23 24 23 24 24 25 24 22 20 19 21 21 20 19 18 17 17 16 15 17 18 17 16 14 12 12 11 10 9 11 12 14 15 15
20 20 21 20 22 23 23 23 23 23 24 24 24 24 24 25 22 20 18 21 22 20 19 17 16 16 15 14 16 17 18 17 15 16 14 13 12 11 10 11 12 14 13
19 20 21 21 22 22 24 23 23 23 23 24 24 24 24 23 23 19 18 19 20 19 19 19 18 16 14 14 13 17 17 15 14 15 14 13 13 12 11 11 11 12 13
21 22 22 23 23 23 24 25 25 24 25 25 24 24 21 20 20 19 18 17 16 20 19 18 18 15 15 15 16 15 15 14 18 17 17 16 14 13 12 11 10 10 11
22 24 25 25 25 25 26 26 25 25 24 24 23 23 22 21 20 19 18 17 17 17 18 16 16 16 16 17 17 16 17 18 18 19 19 17 15 13 11 10 9 9 10
24 25 26 26 26 26 25 24 24 24 24 23 23 23 23 22 22 21 20 21 17 17 17 20 19 18 18 18 20 18 17 18 18 19 19 17 16 15 14 13 11 9 11
24 25 26 26 26 25 24 24 23 22 22 23 23 23 24 24 23 18 18 18 18 17 22 24 24 23 22 22 22 20 19 19 19 18 19 19 18 16 16 14 13 10 11
24 26 26 26 25 24 24 24 20 20 18 19 19 21 23 20 18 16 16 15 15 16 27 28 25 24 24 23 23 21 20 20 19 18 19 18 19 18 18 17 16 15 11
23 25 25 25 25 25 25 25 24 21 18 19 20 19 20 19 18 17 16 16 17 20 32 27 25 25 24 23 21 21 21 20 19 19 19 19 18 18 19 19 18 17 15
22 24 24 24 24 24 24 24 24 25 25 25 21 20 20 19 18 17 16 21 29 26 31 27 26 25 24 22 20 21 20 21 19 19 19 18 19 20 20 20 20 20 18
23 24 23 23 23 23 22 23 24 25 26 26 26 21 23 20 18 18 19 29 33 33 31 27 26 25 24 21 21 20 20 21 19 20 18 19 20 20 21 21 21 20 20
22 22 22 23 23 24 24 25 25 25 26 26 26 26 27 27 30 32 33 34 35 34 30 28 26 25 23 21 21 21 21 21 19 19 19 20 20 21 21 21 21 22 21
22 23 23 24 24 24 25 26 26 26 26 26 26 26 22 29 32 33 35 34 35 34 29 27 26 25 22 21 21 21 21 21 19 18 19 20 20 21 21 20 21 21 21
23 25 25 25 25 25 25 26 25 26 26 26 27 24 21 26 29 32 33 34 34 33 30 30 27 24 23 22 22 21 21 21 19 18 19 20 20 21 21 21 21 21 21
24 25 26 26 26 26 27 26 26 27 27 27 28 26 27 31 33 33 34 36 34 30 28 29 27 25 22 21 21 21 20 21 18 18 20 21 21 21 21 22 22 21 20
25 26 27 27 27 26 27 27 27 27 28 30 30 31 29 33 36 34 34 35 32 32 29 29 26 26 23 23 22 20 19 19 16 18 20 21 21 21 22 22 22 22 21
26 27 27 27 26 27 28 28 28 28 29 29 31 30 32 32 33 36 37 35 33 31 29 28 25 25 25 24 22 21 19 18 15 18 19 20 21 22 22 22 23 23 22
26 26 26 26 27 27 27 27 28 28 29 30 31 32 32 33 34 36 35 34 32 31 30 27 26 27 25 23 20 19 17 14 14 17 19 20 21 22 23 23 24 24 25

GFSGL_con_lsi_003.txt.gz
Lid_Strength_Index
15 15 16 16 16 17 17 18 18 19 19 20 20 20 20 20 20 21 21 21 21 22 21 21 20 20 21 21 21 21 21 21 22 21 19 18 18 18 17 16 15 15 14
16 16 16 17 17 18 18 19 19 19 20 20 20 20 21 21 21 22 22 22 22 22 22 22 22 21 23 22 22 22 22 21 22 23 21 20 20 19 19 18 17 16 16
16 17 17 18 18 18 19 20 19 20 20 20 20 21 21 22 22 22 22 22 22 22 22 23 23 23 23 23 23 23 22 21 21 22 23 21 20 19 19 18 17 17 15
16 17 17 17 18 18 20 20 20 20 21 21 21 22 22 22 22 22 22 22 22 22 22 22 23 22 23 23 23 23 22 22 22 22 22 22 20 19 18 19 19 17 16
16 17 17 18 18 19 20 20 21 21 21 21 22 22 22 23 22 22 22 22 22 22 22 22 21 21 20 20 20 21 20 21 21 21 21 20 19 18 18 17 18 17 14
16 16 17 18 20 20 20 21 21 22 22 22 23 23 23 22 19 18 20 21 21 21 21 21 20 20 20 18 17 17 17 19 19 19 19 19 18 17 17 17 16 16 17
16 17 18 19 20 20 20 21 21 22 22 22 22 22 22 21 17 17 17 18 20 20 20 20 20 20 19 19 18 17 16 16 15 17 18 17 17 16 16 17 15 16 16
17 17 19 19 20 21 21 21 21 22 22 22 22 21 21 21 17 16 16 18 19 20 20 20 20 19 18 18 18 18 17 17 16 16 16 16 15 14 15 14 15 15 14
17 18 19 20 21 22 21 21 21 21 22 21 21 22 21 21 16 16 16 18 19 19 19 19 19 18 17 16 17 18 18 18 15 14 13 12 12 11 10 12 13 15 16
17 18 20 20 21 22 21 22 22 22 22 21 22 22 21 23 17 17 16 19 22 20 19 18 17 17 16 16 16 18 20 19 18 17 15 15 15 15 12 13 13 15 14
18 19 20 20 21 21 22 22 23 22 21 22 22 22 23 23 22 17 15 18 20 21 19 19 18 17 16 14 14 17 19 16 17 20 20 19 18 16 14 12 12 13 14
19 21 21 21 22 23 23 24 23 23 23 23 24 23 22 21 20 17 16 15 16 20 21 18 18 16 16 15 16 16 15 16 21 21 21 20 19 17 16 14 13 12 11
21 21 22 23 24 24 24 25 25 24 24 24 23 23 22 20 20 17 16 16 16 18 18 17 17 17 17 18 18 17 18 21 21 22 22 20 17 16 15 15 15 14 13
22 22 23 24 25 25 24 25 24 25 23 23 23 23 22 22 22 21 21 20 17 18 19 23 20 19 19 19 20 20 20 20 21 21 21 18 17 17 17 16 17 15 16
21 23 24 24 25 25 24 24 24 22 21 22 22 21 22 22 22 19 19 20 20 19 28 29 27 23 22 22 22 21 21 21 21 20 20 19 18 18 18 17 17 17 18
22 23 24 25 25 25 25 24 20 20 19 18 18 20 20 18 16 15 16 16 18 18 29 31 28 25 24 24 23 23 22 22 21 20 19 19 19 19 18 18 18 19 19
22 24 24 25 25 25 24 23 23 19 17 17 17 18 17 16 16 16 16 18 18 23 32 33 30 27 25 24 24 23 24 22 21 19 19 19 18 18 19 20 20 20 20
21 23 24 24 24 24 23 22 21 21 22 21 17 17 16 15 15 16 18 22 27 28 35 35 33 31 27 26 25 24 24 23 21 20 20 19 18 19 20 21 20 21 21
22 23 24 24 22 23 22 22 22 20 21 22 21 18 17 15 15 17 21 26 30 32 34 36 34 31 28 27 26 25 24 22 21 20 20 19 18 19 20 21 21 20 20
21 22 23 23 23 22 22 22 22 22 22 22 22 23 23 23 26 28 28 29 32 33 33 36 33 33 30 28 27 25 23 22 21 20 20 18 18 19 21 21 21 21 21
20 21 22 22 21 21 21 22 22 23 23 22 23 23 22 25 27 28 30 32 33 34 36 36 33 34 31 29 27 25 23 21 21 20 20 18 19 20 20 20 21 21 21
19 20 21 22 22 22 22 22 22 22 23 24 24 21 18 25 27 28 29 31 33 34 36 35 35 35 30 28 27 24 23 22 20 19 19 18 19 20 21 21 21 21 21
20 22 22 23 23 23 23 24 24 24 24 24 24 24 25 27 29 30 31 34 33 34 35 35 34 33 30 28 26 24 23 22 20 19 18 18 20 20 21 22 22 22 22
22 23 24 24 24 24 25 25 26 25 25 25 26 26 26 29 31 30 32 33 34 39 36 35 33 34 31 29 27 24 23 21 19 17 16 18 20 20 21 22 22 22 22
24 24 25 26 26 26 27 27 26 26 26 26 27 27 29 29 30 34 34 34 37 37 34 33 33 33 31 30 29 26 23 20 17 14 16 18 20 20 21 22 22 22 22
25 26 26 26 27 27 27 26 26 26 27 27 28 29 29 30 31 33 34 36 35 35 34 34 34 33 31 29 27 23 20 16 13 14 16 18 19 21 21 22 23 23 23

GFSGL_con_lsi_006.txt.gz
Lid_Strength_Index
15 15 15 16 16 17 18 18 18 18 18 18 19 19 20 20 20 20 20 20 20 20 20 20 21 20 21 21 21 21 21 21 24 21 20 20 20 20 19 19 18 19 18
15 15 16 16 17 17 17 18 18 18 19 19 19 19 20 20 20 20 21 20 21 21 21 21 22 21 22 21 21 22 22 21 23 24 21 21 21 20 20 20 19 18 18
15 16 16 17 17 17 17 18 18 18 19 19 19 20 20 20 20 20 21 21 21 21 21 21 22 22 22 22 22 22 22 21 22 23 23 21 21 20 20 19 19 18 17
15 16 17 17 16 16 17 18 18 18 19 19 19 20 21 21 21 21 21 22 22 22 22 21 21 21 21 22 22 22 22 23 22 22 22 22 21 19 19 19 19 17 17
15 16 16 16 16 16 18 18 18 18 19 19 20 21 21 21 21 21 21 22 22 21 21 20 20 20 19 19 21 22 22 23 22 22 22 21 20 19 19 18 18 18 17
15 16 16 17 17 17 18 18 19 19 20 20 20 21 22 21 18 17 20 21 20 20 20 20 19 19 18 17 16 16 17 19 20 20 19 20 19 18 17 17 17 18 20
15 16 17 17 18 19 18 19 19 20 20 21 21 21 21 21 16 15 16 19 19 19 19 19 19 18 18 18 17 16 16 15 15 17 19 18 18 17 17 18 18 18 18
16 17 17 18 19 19 19 19 19 20 21 21 21 21 21 21 15 14 15 17 18 18 18 18 18 18 18 18 18 18 18 17 17 16 16 16 16 15 15 15 16 16 15
17 17 17 18 19 20 20 19 19 20 21 21 20 21 21 21 14 14 14 18 19 19 18 18 18 18 16 15 17 18 18 16 15 14 14 14 13 13 14 17 19 19 20
16 16 18 18 18 19 19 19 20 20 20 21 22 21 21 22 14 13 15 18 20 19 19 18 16 17 15 14 16 17 18 17 18 18 16 18 17 18 16 17 18 21 20
18 20 20 19 19 19 19 19 20 20 21 21 22 22 22 22 18 15 14 19 20 21 20 20 18 16 16 14 13 17 18 17 16 20 21 21 20 19 19 17 17 18 19
19 21 21 20 20 20 21 21 21 21 22 23 24 24 22 22 21 16 15 16 17 21 20 19 18 16 15 15 15 16 15 16 23 23 23 22 21 20 19 17 17 17 16
20 19 20 22 21 21 21 22 23 22 22 24 24 23 23 22 22 17 15 15 16 19 19 17 16 17 17 18 18 17 18 22 23 24 23 22 20 19 18 18 17 16 15
19 20 21 21 22 21 21 22 22 22 22 23 23 23 23 23 22 19 18 17 16 17 18 22 21 20 19 19 21 21 21 21 21 22 22 20 19 20 20 19 18 17 18
19 20 21 21 22 22 21 22 21 21 20 22 21 21 22 23 21 19 19 21 21 20 28 29 27 24 24 23 23 22 21 21 21 21 21 21 21 20 20 18 16 17 19
19 21 21 22 22 22 22 22 18 19 18 17 17 19 19 18 18 17 16 16 16 17 30 31 28 26 25 24 24 23 22 21 21 21 21 21 22 21 21 18 16 18 20
18 19 21 22 23 23 23 24 24 19 17 16 17 17 17 17 15 15 14 14 15 21 30 31 30 27 26 25 24 23 23 22 21 22 22 22 22 21 19 18 18 19 20
17 17 20 21 22 23 23 23 22 22 21 20 17 17 16 15 14 14 14 16 23 26 31 33 32 30 27 26 25 25 24 24 23 23 23 23 22 20 19 18 18 20 21
18 18 20 21 21 22 22 22 22 21 21 21 20 18 16 15 15 15 17 25 27 28 31 30 31 29 28 28 27 28 27 26 25 25 24 23 21 19 18 18 19 19 20
15 16 19 20 21 21 21 21 20 20 20 21 20 19 18 17 21 24 27 28 28 29 28 30 30 32 31 32 31 31 29 27 26 24 23 21 20 19 18 19 19 20 21
15 17 19 19 20 20 20 19 19 19 20 19 20 20 18 21 25 26 28 27 28 29 29 30 31 33 33 33 34 33 30 27 26 24 23 21 20 18 18 19 19 20 21
16 18 18 18 18 19 18 18 19 19 20 22 21 17 16 23 25 27 26 27 29 29 30 32 33 33 32 34 35 31 29 28 26 24 22 21 19 17 18 19 20 20 21
18 19 19 19 19 18 19 20 20 21 22 22 21 19 24 25 26 26 27 29 29 29 30 32 32 31 31 33 32 29 29 28 26 24 23 21 18 18 19 20 21 21 22
20 20 20 20 20 20 20 22 22 22 22 22 23 25 26 27 27 28 29 29 29 31 33 33 32 32 32 32 33 31 29 27 26 23 21 19 17 17 19 20 21 21 22
22 22 22 22 23 23 23 24 24 24 24 25 26 27 27 27 28 28 29 29 30 31 31 32 32 32 32 33 32 31 29 26 24 20 17 17 17 18 19 20 21 21 22
24 24 24 24 25 25 25 26 26 26 26 27 27 26 26 27 27 28 29 30 30 31 32 32 33 33 33 31 30 27 24 20 18 15 16 16 17 18 19 21 21 22 22

GFSGL_con_lsi_009.txt.gz
Lid_Strength_Index
15 15 15 15 15 16 17 16 17 17 18 18 18 18 19 19 19 19 20 20 20 20 20 20 20 20 21 21 20 21 21 21 24 22 20 20 20 20 20 19 19 19 19
15 15 15 15 16 16 16 17 17 17 18 18 18 18 19 19 19 19 20 20 20 21 20 20 21 20 22 22 22 22 22 21 22 23 21 21 21 20 20 20 19 18 18
15 16 16 16 16 16 16 17 17 17 18 18 18 19 19 19 19 19 20 20 20 20 21 21 21 21 22 22 22 22 22 21 21 22 22 20 20 19 19 18 18 18 17
15 16 16 16 16 15 16 17 17 18 18 18 18 18 19 19 20 20 20 20 21 21 21 21 21 21 22 22 22 21 21 22 21 21 21 20 19 18 17 18 18 17 17
15 15 15 15 15 16 16 17 18 18 17 18 19 19 19 19 20 20 20 21 21 22 21 21 21 20 18 19 21 21 21 22 22 22 21 19 18 18 18 18 18 18 18
15 15 14 15 16 16 16 17 18 18 18 18 19 19 19 19 16 16 19 21 21 21 22 21 20 19 18 16 16 16 19 23 23 22 19 18 18 17 17 18 18 19 20
14 14 15 17 16 17 17 18 18 18 18 19 19 19 19 19 15 15 17 20 21 21 21 20 19 19 19 18 16 15 15 14 14 16 18 17 17 17 16 17 17 17 17
14 14 16 16 16 17 18 19 19 18 19 19 19 19 19 19 15 15 16 20 20 20 20 19 19 19 18 19 19 19 18 18 17 17 17 16 16 15 15 15 16 18 18
16 16 17 17 17 19 19 18 18 19 19 19 18 19 19 19 15 14 16 20 19 20 20 19 19 18 17 16 18 20 19 18 15 14 13 13 13 13 13 17 21 21 22
16 15 17 18 19 18 18 19 18 18 18 18 19 19 19 20 15 14 16 19 20 20 19 19 18 18 16 16 18 22 23 19 17 20 17 16 17 17 15 17 20 22 22
17 19 20 20 20 20 18 19 19 19 19 20 20 20 20 19 16 13 14 19 20 20 20 19 19 16 16 15 15 18 18 18 19 22 22 21 20 19 19 18 18 19 21
17 19 20 21 20 20 20 21 19 19 20 21 21 22 21 20 16 13 13 16 16 20 20 19 19 16 15 15 15 16 15 17 26 27 25 23 22 20 19 18 17 17 17
13 16 18 18 20 19 19 20 20 20 21 22 22 22 22 21 18 14 13 15 16 20 19 18 16 16 15 17 18 18 19 23 26 28 25 22 20 19 18 18 18 18 18
15 15 17 19 19 20 20 21 20 21 21 21 22 21 22 21 21 17 16 15 16 18 17 17 17 19 19 20 22 21 22 22 22 23 22 20 19 20 20 19 20 19 20
18 16 17 18 19 20 20 20 20 19 19 20 20 20 22 22 21 18 17 16 17 18 23 23 25 24 24 24 24 24 23 22 22 22 22 21 21 20 20 19 20 20 21
21 19 16 17 19 20 20 21 17 17 17 16 16 18 19 18 17 16 15 15 16 17 23 25 25 24 24 24 25 24 24 23 22 22 22 22 21 21 21 20 20 21 22
22 20 17 17 18 20 21 21 22 19 16 16 15 15 16 17 16 15 15 15 15 17 24 24 25 25 26 25 25 25 25 23 22 22 22 22 22 22 22 22 21 21 21
21 20 19 16 18 19 20 21 21 21 20 20 15 16 16 15 15 14 15 15 17 23 26 27 28 28 27 26 26 26 25 25 24 23 24 24 24 24 23 22 21 22 21
20 19 18 16 17 18 19 21 21 21 20 19 18 16 16 15 14 14 14 19 25 26 27 27 28 28 27 28 28 28 30 29 27 27 29 27 25 24 23 22 21 20 20
19 19 18 17 18 19 20 21 21 21 21 20 19 19 18 17 17 16 21 23 24 25 26 26 28 29 29 30 31 32 33 32 29 29 29 26 24 23 22 22 21 20 20
20 18 16 14 18 18 19 20 20 19 19 20 19 17 15 16 17 23 23 23 24 25 26 27 28 30 32 32 33 35 33 29 29 30 28 26 24 24 22 21 19 20 20
17 16 15 17 17 17 17 17 17 17 17 17 17 15 12 20 21 22 23 24 25 26 26 27 29 30 31 31 31 31 31 30 30 31 28 25 25 23 22 20 20 20 20
17 18 18 18 18 18 17 17 17 17 17 17 16 16 20 22 23 24 25 26 27 28 29 30 30 31 30 31 30 30 30 30 30 31 28 26 25 23 21 20 20 21 21
20 20 20 19 19 19 19 19 18 19 18 17 20 21 23 24 25 26 26 27 27 29 30 30 30 30 31 32 32 32 31 30 31 30 28 26 24 21 19 19 20 21 21
21 21 21 21 21 21 21 21 21 20 20 23 24 25 25 26 26 27 28 27 28 29 29 29 28 29 30 30 30 31 31 28 29 27 26 23 19 21 19 20 21 21 21
23 23 23 23 23 23 22 22 23 23 24 24 25 26 26 27 27 28 28 28 28 27 27 27 28 29 29 29 30 28 27 23 22 19 17 16 21 19 19 21 22 21 21

GFSGL_con_lsi_012.txt.gz
Lid_Strength_Index
16 16 16 16 16 16 16 16 16 16 16 17 17 17 18 18 18 18 18 19 19 20 20 20 20 19 20 20 20 21 21 21 23 22 21 21 20 20 19 18 18 18 17
16 16 16 16 17 17 17 16 16 16 16 16 17 18 18 18 18 18 19 19 19 20 20 20 20 20 21 21 21 22 22 22 22 23 22 22 21 20 19 19 18 17 16
14 16 16 16 17 16 16 16 17 16 16 16 17 17 18 18 18 18 19 19 20 20 20 20 20 21 22 22 22 22 22 22 22 23 23 21 21 20 20 19 18 17 16
14 16 16 16 15 15 15 16 16 16 17 17 17 17 17 18 18 19 19 19 19 20 20 20 21 21 21 22 22 22 22 23 23 23 22 21 20 19 18 18 18 17 17
14 14 14 15 15 15 15 15 16 17 17 17 18 18 18 18 18 19 19 19 20 20 20 20 21 20 19 20 21 22 22 23 23 23 22 21 20 19 19 18 18 18 17
14 14 14 14 16 16 16 16 17 17 17 17 18 18 19 18 16 15 17 19 19 20 21 21 21 20 18 17 17 18 20 24 28 25 20 20 19 18 18 18 18 18 19
13 13 14 14 15 16 17 17 17 17 17 18 18 18 18 18 16 14 15 18 19 20 20 21 21 20 20 19 16 17 17 17 18 19 19 18 19 18 18 18 17 17 18
14 14 14 15 16 16 18 17 17 18 18 18 18 18 18 18 15 14 15 18 19 20 20 21 21 20 20 19 19 18 18 18 17 17 18 18 18 17 17 16 17 19 19
13 14 14 14 15 15 15 16 17 18 18 17 17 17 18 18 15 14 15 19 19 20 20 20 20 20 18 17 20 20 20 19 16 15 14 14 14 14 15 20 25 26 24
15 14 15 16 17 17 16 17 15 16 17 17 17 17 17 18 15 13 15 19 20 20 20 20 18 19 17 16 20 21 22 20 19 20 18 18 17 18 17 18 23 28 25
16 17 15 14 16 16 17 19 18 17 17 18 19 18 18 18 18 13 13 18 19 20 20 20 19 17 16 15 16 19 20 18 19 22 22 22 21 21 20 19 19 21 23
16 15 16 15 15 16 18 19 20 18 18 20 22 22 20 19 17 13 12 17 17 20 20 20 19 16 16 15 15 15 15 19 25 26 27 25 23 22 21 20 19 19 18
18 18 18 17 16 17 17 18 18 19 20 20 21 21 21 20 18 14 12 14 16 19 19 18 17 15 15 14 14 15 18 22 25 26 26 24 22 21 20 20 20 20 19
21 21 20 20 18 15 17 16 18 19 20 20 21 21 21 21 19 17 14 14 16 18 17 18 17 16 15 19 17 17 21 22 23 24 24 22 21 22 22 21 22 21 22
21 22 22 21 20 17 16 16 17 16 17 19 19 19 20 21 20 17 15 16 17 19 18 19 19 20 21 22 23 23 22 22 23 23 23 24 23 23 22 21 21 22 23
23 22 22 21 20 19 17 17 14 14 15 15 14 16 18 17 17 16 14 13 15 16 19 20 22 22 22 24 24 23 23 23 22 23 24 24 24 23 23 22 21 23 23
24 24 23 22 21 20 18 18 18 17 14 14 13 13 14 17 16 16 14 13 14 16 20 22 23 23 23 24 24 24 23 23 24 24 24 24 24 24 24 24 23 22 22
23 22 22 21 21 20 19 17 17 17 20 18 14 13 13 14 15 15 14 13 16 18 22 23 23 23 23 24 24 25 25 25 25 25 25 25 26 26 26 25 23 23 22
22 22 21 20 20 19 18 17 16 17 18 18 18 15 14 13 14 13 13 15 17 24 23 22 23 24 25 25 26 27 27 28 28 28 28 29 28 28 26 25 23 22 22
22 21 21 21 20 19 18 16 16 17 18 17 18 17 15 16 17 16 15 15 21 21 23 24 25 25 26 27 28 28 29 30 30 30 30 29 28 28 25 24 23 23 23
22 22 21 20 19 17 16 16 16 17 17 17 17 16 15 17 16 16 15 21 22 24 25 26 26 27 27 28 29 29 29 28 29 30 30 31 29 27 25 23 23 23 21
20 20 19 18 17 16 15 16 16 17 16 16 16 15 12 15 18 21 21 22 24 24 26 26 27 27 28 28 28 29 29 29 31 32 33 31 27 26 25 24 23 22 20
19 19 18 18 17 17 17 17 17 16 16 15 15 15 17 19 20 22 24 24 25 26 26 26 27 29 29 28 28 28 28 29 30 32 31 30 28 27 26 24 22 21 21
20 20 20 19 19 20 19 19 18 18 17 18 20 21 21 21 23 24 24 25 26 27 27 27 27 27 28 30 30 31 32 32 31 31 31 29 27 26 25 23 21 20 21
22 22 22 21 21 21 21 20 20 22 21 22 22 23 23 23 24 25 25 26 27 28 28 28 28 28 28 29 30 31 31 25 26 28 30 27 27 26 23 22 20 21 23
24 23 23 23 23 22 22 23 23 23 23 23 23 23 24 24 25 26 26 27 27 27 28 28 28 28 28 28 29 28 26 23 25 26 26 24 21 19 23 22 21 22 23

GFSGL_con_lsi_015.txt.gz
Lid_Strength_Index
13 14 15 14 15 15 16 15 15 15 15 16 15 15 16 16 16 16 16 16 16 16 17 17 17 17 17 17 17 17 17 18 17 20 19 18 19 19 18 18 17 17 16
13 14 14 14 15 15 15 15 15 15 15 15 16 16 16 16 16 16 16 16 16 17 18 17 18 18 18 18 18 18 18 18 18 19 20 20 19 19 18 18 18 17 16
13 14 14 14 14 15 15 15 15 15 15 15 16 16 16 16 16 16 16 16 16 17 17 18 18 18 19 19 18 19 18 19 19 20 20 20 19 19 18 18 17 16 15
14 14 14 14 14 14 14 14 15 15 15 15 15 16 16 16 16 17 17 17 17 17 17 17 18 18 18 19 19 19 19 19 20 20 21 21 20 19 18 18 17 16 16
14 14 14 14 14 14 14 14 14 15 15 15 16 16 16 16 17 17 17 17 17 17 17 18 18 17 17 18 19 19 20 20 21 21 21 21 20 20 19 18 18 17 16
13 13 14 14 14 14 14 14 14 15 15 15 16 16 16 16 14 14 16 17 17 17 18 18 18 18 17 16 16 17 19 21 22 21 21 21 20 18 18 18 18 18 18
14 13 14 14 14 15 14 15 15 15 15 15 16 16 16 16 14 13 14 16 17 17 18 19 19 19 18 17 16 17 17 17 18 20 20 19 19 18 18 18 18 18 18
15 15 15 15 16 15 15 15 15 15 15 15 15 15 16 16 14 13 13 16 17 17 18 18 19 19 19 18 18 18 18 18 18 18 18 17 17 17 17 16 17 18 18
16 16 16 17 17 15 16 16 15 15 15 15 14 15 16 16 14 13 13 15 17 17 17 18 18 19 18 16 18 18 19 19 16 16 16 16 16 15 15 18 20 21 22
15 16 17 18 17 17 17 16 16 15 16 15 15 15 15 15 13 12 12 13 16 17 18 19 17 18 17 16 18 18 19 19 18 17 17 16 14 16 17 17 20 22 22
15 16 17 18 19 18 17 15 16 16 16 16 16 16 16 15 14 12 12 13 16 17 18 19 19 16 16 15 16 18 18 18 18 19 18 19 19 19 19 19 18 20 22
16 17 18 18 19 18 18 18 15 16 18 17 17 17 17 15 15 13 12 11 14 17 18 18 18 15 15 14 16 18 17 18 19 20 21 21 21 21 20 19 19 19 19
18 19 19 19 19 19 19 18 16 14 16 17 17 18 17 17 16 13 13 12 13 17 17 17 17 15 15 14 14 16 17 20 21 22 22 21 21 20 20 20 20 20 20
20 20 20 20 20 20 19 18 17 15 15 16 16 17 17 18 18 16 15 13 13 15 16 17 16 15 15 15 15 16 19 20 20 21 22 21 21 21 22 21 22 21 22
20 20 21 21 21 21 20 19 17 15 14 16 15 16 17 18 17 16 16 15 14 15 17 17 17 17 17 18 18 20 21 22 22 22 23 23 23 23 23 22 22 22 23
22 21 21 21 21 21 21 20 16 15 13 12 12 13 16 14 13 13 13 13 12 15 18 19 19 18 19 19 22 22 22 23 22 23 23 23 23 23 23 23 22 23 24
23 23 22 22 22 22 21 21 21 17 14 12 11 11 12 12 13 12 12 12 11 14 19 19 19 19 20 20 22 23 23 23 22 23 23 24 24 24 24 24 23 23 23
24 24 24 23 23 22 21 21 20 19 18 16 13 12 12 11 11 12 12 12 13 15 18 18 19 19 22 22 22 22 23 23 23 24 24 25 26 25 26 25 25 25 24
25 24 24 23 22 22 21 21 20 19 18 16 14 13 13 10 11 11 11 14 14 16 18 19 19 19 20 20 21 22 23 24 24 25 26 27 27 27 27 26 25 25 24
23 23 22 22 22 22 21 21 20 19 18 16 15 15 13 13 13 14 13 14 14 16 19 19 20 20 21 22 23 24 25 26 26 27 27 27 27 27 26 26 25 24 23
22 22 22 22 22 21 21 20 19 18 16 15 15 13 12 12 13 14 13 14 19 19 19 21 22 23 24 25 26 26 27 27 28 27 27 27 28 28 26 25 24 24 24
22 21 21 20 19 19 19 18 17 15 15 15 14 14 11 11 12 13 17 19 19 20 21 23 25 25 25 25 26 26 26 27 27 26 26 26 27 26 26 25 25 24 23
22 21 20 19 18 17 17 16 16 16 16 15 14 14 15 17 20 21 22 22 22 23 23 24 25 27 26 26 25 24 25 25 25 26 26 27 27 26 27 26 25 24 23
23 22 22 21 19 19 19 19 18 18 19 20 20 20 21 21 22 23 23 23 23 23 23 23 24 26 27 27 27 26 25 26 26 26 26 27 27 27 26 26 24 23 20
24 23 23 23 22 21 22 22 22 22 22 22 22 23 23 23 23 23 23 23 24 24 24 24 24 25 26 27 27 28 28 25 29 28 29 28 27 26 26 25 22 20 20
24 24 25 24 24 24 24 24 24 23 23 23 23 23 23 24 24 24 24 24 24 25 25 25 26 26 26 27 27 27 27 25 26 26 27 26 25 25 24 21 21 20 20

GFSGL_con_lsi_018.txt.gz
Lid_Strength_Index
12 11 11 11 11 12 12 12 12 12 12 12 12 12 12 12 12 13 13 12 13 12 13 13 13 12 13 13 13 13 14 13 13 16 15 15 15 16 17 17 16 16 15
12 11 12 11 12 12 12 12 12 13 12 13 13 13 13 12 12 13 13 13 13 13 13 14 13 14 13 13 14 14 14 14 14 17 17 17 17 17 17 17 17 17 16
12 12 12 11 12 13 14 13 13 13 13 12 13 13 13 13 13 13 13 13 14 14 14 14 14 15 15 14 15 15 15 16 15 15 18 17 18 17 18 17 17 16 16
13 12 12 12 12 13 13 13 13 13 13 13 13 13 13 13 13 13 14 14 14 14 14 14 15 16 15 15 15 15 15 15 16 17 17 19 18 18 17 17 17 16 15
12 12 12 12 12 13 14 14 14 13 14 14 14 13 14 14 14 14 14 14 15 15 14 14 15 15 14 14 16 15 15 16 16 17 18 18 19 19 19 17 17 16 15
12 13 13 12 12 13 13 14 15 14 14 13 14 13 14 14 13 12 13 15 15 15 16 15 15 15 14 13 13 14 15 16 17 17 18 19 18 18 18 18 18 18 16
13 13 13 13 13 14 13 13 14 14 14 15 14 14 14 13 13 12 12 14 15 15 15 16 16 16 16 15 13 13 14 14 14 16 17 18 18 17 17 18 18 17 17
13 13 13 14 15 14 14 13 14 14 14 14 14 14 14 14 13 13 13 13 14 14 14 15 16 16 16 16 16 15 15 16 15 17 16 16 16 16 16 16 17 16 16
12 13 12 14 15 15 16 15 14 14 14 14 14 13 13 13 12 12 12 13 13 14 14 14 15 16 15 14 16 16 16 16 15 15 16 15 15 15 16 16 18 19 20
11 12 12 13 15 16 15 16 15 14 14 13 14 13 13 13 12 12 12 13 14 13 13 14 14 15 14 14 15 15 17 17 17 17 17 16 15 16 15 16 17 20 20
11 12 12 13 14 15 15 15 16 16 15 15 14 13 13 13 13 12 12 13 13 13 13 14 15 14 13 14 13 14 15 16 16 18 17 17 17 16 16 16 17 19 20
13 14 14 15 15 15 16 16 16 16 16 16 15 14 13 13 13 13 12 12 12 13 13 13 14 14 13 13 13 14 14 15 17 17 17 18 18 18 18 19 19 18 18
15 16 17 16 17 17 17 18 17 17 17 16 14 13 13 12 12 13 12 12 12 13 12 12 13 14 13 13 12 13 14 17 17 18 18 19 18 19 19 20 19 19 19
18 18 18 18 18 18 18 17 18 18 17 16 15 14 13 12 12 12 13 14 12 12 12 12 13 14 14 14 14 13 15 17 18 19 19 19 20 20 21 20 21 22 22
20 19 19 19 19 19 19 18 18 17 16 17 16 15 15 14 12 11 12 13 12 12 12 14 15 16 16 15 15 15 16 18 19 18 19 21 21 21 22 21 21 22 23
22 22 21 21 21 21 21 21 18 16 15 14 13 13 13 12 10 10 10 10 11 10 13 15 16 16 16 15 15 17 18 19 19 20 20 21 22 22 22 22 22 23 23
24 24 23 23 23 23 22 22 23 19 16 15 14 13 12 12 10 9 9 9 10 10 13 15 15 16 16 15 16 18 19 18 19 20 21 22 22 22 22 23 23 23 24
24 24 23 23 23 23 23 22 22 22 22 20 16 15 13 11 9 9 8 9 11 11 13 14 14 14 15 16 17 19 20 21 21 21 22 22 23 23 24 24 24 24 24
23 23 22 22 22 22 22 21 21 21 21 20 19 16 14 11 10 9 9 10 12 12 13 15 14 14 15 16 17 19 20 21 21 22 23 23 23 24 24 23 23 24 24
22 22 22 21 21 21 20 20 20 20 20 19 18 17 15 12 12 11 9 10 10 11 12 14 14 16 17 17 18 19 21 22 23 24 24 24 24 23 24 24 23 23 23
22 21 21 20 20 20 19 19 19 19 19 18 17 14 11 12 12 11 10 9 10 10 13 16 16 17 18 19 20 21 22 23 24 24 25 25 25 25 24 23 23 24 23
21 21 21 20 19 19 18 17 17 17 17 17 15 12 11 11 11 10 12 13 13 13 14 15 17 19 20 21 21 22 23 24 24 24 25 25 25 24 24 23 23 22 22
22 22 21 20 20 19 18 17 17 17 15 15 15 15 15 16 16 17 17 17 17 17 18 19 20 21 21 21 20 21 22 23 23 23 24 24 24 24 24 23 23 23 22
22 22 22 22 21 21 20 20 20 20 20 20 20 20 20 19 20 20 19 19 19 19 19 20 21 21 22 22 22 21 22 22 22 22 22 23 23 23 22 23 22 22 21
22 22 22 23 23 23 22 22 21 21 21 21 21 21 21 21 21 21 21 20 20 20 21 20 21 21 22 22 23 23 21 22 23 23 23 23 23 23 23 22 22 21 20
23 23 23 22 22 23 23 23 23 23 23 23 22 22 22 22 22 22 22 22 22 22 22 22 22 22 22 23 23 24 23 23 25 25 24 24 23 23 22 22 22 21 20

GFSGL_con_lsi_021.txt.gz
Lid_Strength_Index
12 11 11 11 11 12 12 11 11 11 11 11 11 11 11 11 11 12 12 12 12 12 12 12 13 12 12 12 12 12 13 12 12 16 14 14 14 16 16 17 16 17 16
11 11 11 12 12 13 13 13 12 12 11 12 12 12 12 12 12 12 12 13 13 13 13 13 13 13 12 12 12 13 14 14 13 17 16 16 15 15 17 18 18 17 16
12 11 11 11 12 13 14 13 12 12 12 12 13 13 13 13 13 12 13 13 13 13 13 13 13 13 13 13 13 14 14 16 14 15 17 17 17 16 17 18 18 18 18
12 12 12 11 11 12 13 14 14 13 13 12 12 12 12 13 13 13 14 14 13 13 13 13 13 13 13 14 14 14 14 15 15 15 18 18 18 18 18 19 19 18 18
11 12 12 12 11 12 12 13 12 12 13 12 12 12 13 13 14 14 14 14 14 14 14 14 13 13 13 13 14 14 14 15 15 16 17 18 19 19 19 18 18 17 17
11 12 11 12 12 12 12 13 12 12 13 12 13 13 12 14 12 12 12 13 14 15 15 14 14 14 13 12 12 12 13 14 15 16 16 18 18 18 18 18 18 17 19
11 11 12 12 12 13 13 14 14 13 13 13 12 12 13 12 11 12 12 13 13 14 14 14 14 14 14 14 13 12 12 11 12 14 15 17 17 17 17 17 17 17 17
11 11 12 12 12 13 14 14 14 14 14 14 13 12 12 13 11 10 11 13 13 13 13 14 14 14 15 15 15 14 14 14 13 13 14 14 15 16 16 16 16 16 16
11 11 11 11 12 13 15 15 14 14 15 15 14 14 13 12 11 11 11 11 12 13 13 13 14 14 13 13 15 15 15 14 13 12 12 12 13 14 14 16 17 18 19
11 11 11 11 12 13 13 14 14 14 14 14 15 14 14 14 11 10 11 11 12 12 12 12 13 13 13 12 15 15 16 15 15 15 15 14 14 14 13 15 16 18 19
11 12 12 12 13 13 13 14 14 15 15 16 16 15 15 14 13 10 9 11 12 12 11 12 12 11 11 12 12 14 15 14 14 15 16 16 16 16 15 15 15 16 18
14 15 15 16 15 15 16 16 17 17 18 18 17 16 15 13 11 10 9 8 9 11 11 11 11 11 11 11 11 12 13 13 15 16 17 17 17 17 16 16 16 16 17
18 19 19 18 18 18 18 18 18 18 18 19 18 18 17 14 13 10 9 9 8 9 10 10 9 10 11 12 11 12 13 13 15 17 18 17 17 16 16 17 18 18 18
21 21 20 21 20 20 19 19 20 20 20 19 19 19 18 16 15 12 11 11 10 10 10 9 9 9 10 12 13 12 13 13 16 17 17 16 16 17 19 19 20 20 21
21 21 22 21 22 22 21 22 21 20 20 21 20 19 19 19 16 13 13 12 11 11 11 11 10 10 11 13 15 14 14 14 15 16 16 16 18 19 20 20 20 21 23
23 23 23 23 23 23 23 22 19 18 17 16 16 16 17 14 13 12 11 11 11 9 10 12 12 11 12 14 14 15 15 14 15 16 17 18 19 20 21 20 21 22 23
24 24 24 23 23 23 23 23 24 21 18 17 16 16 15 14 13 12 11 11 10 9 11 11 12 12 12 13 13 13 15 16 16 17 18 19 20 20 21 22 22 22 23
24 23 23 22 22 22 22 22 21 22 23 21 18 17 16 15 14 13 12 11 11 11 10 11 11 12 12 12 12 13 15 16 17 18 19 19 20 21 22 22 23 23 23
24 23 22 22 21 20 20 20 20 20 20 20 19 18 17 15 14 13 11 13 11 11 9 10 10 11 11 11 13 14 16 17 18 19 20 20 20 21 22 22 22 23 23
23 23 22 22 21 20 19 20 20 20 19 19 19 18 17 16 16 14 12 12 12 11 9 9 10 11 11 13 14 15 17 17 18 19 20 21 22 22 23 23 24 25 25
22 22 22 22 21 21 20 19 19 18 18 18 17 16 13 14 13 12 11 11 10 8 8 9 11 11 12 13 15 16 17 18 20 21 22 22 22 23 23 23 24 24 24
21 22 22 22 21 21 20 19 19 19 19 18 16 15 12 14 14 13 13 13 10 10 10 11 11 12 13 15 17 18 19 21 21 22 22 23 23 23 23 23 23 24 24
21 22 22 21 21 21 21 20 20 20 20 20 19 19 19 18 18 18 18 17 16 16 15 15 15 16 16 16 17 18 20 21 21 21 23 23 23 23 23 23 23 23 23
22 22 22 22 22 21 21 21 21 22 22 21 21 21 21 20 20 19 19 18 18 18 18 18 18 18 18 18 18 18 19 20 20 21 21 22 23 23 22 23 23 23 22
23 23 23 23 23 23 22 22 21 22 22 22 22 22 22 21 21 21 20 20 20 20 19 19 19 19 20 20 20 20 19 20 20 20 20 21 22 22 22 22 22 22 22
23 23 23 23 23 23 23 23 22 22 22 22 22 22 22 22 22 21 21 21 21 21 21 21 21 21 21 21 21 20 20 20 22 21 21 21 22 22 22 22 22 22 22

GFSGL_con_lsi_024.txt.gz
Lid_Strength_Index
14 13 14 15 15 14 14 14 14 14 13 13 13 13 13 13 13 14 15 14 14 14 15 15 15 15 14 15 15 15 15 16 17 19 17 16 15 16 16 17 17 17 17
14 14 14 14 14 15 15 15 14 13 13 13 13 14 14 13 14 14 14 14 15 15 15 15 15 14 15 16 16 14 14 16 17 19 18 17 16 15 16 18 18 17 18
14 15 15 15 15 15 16 16 15 14 14 13 13 13 14 14 14 14 13 13 14 14 14 15 14 15 15 14 15 15 14 15 16 19 19 18 18 16 18 19 19 19 18
13 14 15 15 15 15 15 16 16 15 15 15 14 13 12 13 14 14 14 14 13 13 13 13 13 14 14 14 14 15 15 15 15 18 19 18 18 16 17 19 19 18 19
13 14 14 14 13 14 14 15 15 15 14 14 14 14 13 13 12 13 13 15 14 14 13 13 13 13 12 13 14 14 14 15 15 15 18 20 19 18 18 18 19 19 19
13 14 13 13 13 14 14 14 14 14 14 14 14 14 14 13 11 10 10 12 12 13 13 13 13 13 13 11 11 11 12 14 14 14 15 17 18 18 17 18 18 19 20
14 13 13 13 13 13 13 14 14 15 15 15 15 14 14 14 11 10 9 11 12 12 12 12 12 13 13 14 12 11 11 10 11 13 14 16 17 17 17 18 18 17 17
12 12 12 12 13 13 13 14 14 14 15 15 15 15 15 14 11 11 10 11 12 11 11 12 12 12 12 13 14 14 13 13 12 12 13 13 14 16 16 16 16 16 18
11 11 12 12 13 12 13 13 13 13 14 15 15 15 16 15 13 12 11 13 12 12 11 11 11 11 10 9 12 14 14 14 12 11 11 11 11 12 15 16 17 19 22
12 12 12 13 14 14 14 14 13 14 14 14 14 14 15 16 13 12 12 13 14 13 12 12 11 11 9 9 11 12 15 15 14 14 13 12 11 12 13 15 16 18 18
14 15 16 16 17 17 17 17 17 17 17 17 17 17 17 16 16 13 12 13 13 13 13 12 11 9 9 8 8 11 12 11 13 13 14 14 14 15 14 14 14 15 17
17 18 19 20 20 19 20 20 20 20 20 20 20 19 18 17 15 14 13 12 11 13 12 11 11 8 8 8 9 9 9 10 12 13 14 15 15 16 15 15 15 15 15
20 21 21 21 21 21 22 22 22 22 22 22 21 21 20 18 18 15 14 13 12 13 12 10 9 8 8 8 8 8 9 10 12 13 14 15 15 15 15 16 16 18 18
22 22 21 22 22 22 22 22 23 23 24 23 23 23 23 22 21 19 18 17 15 14 11 11 10 9 9 9 9 8 8 9 11 12 13 14 14 15 16 16 18 18 19
21 21 22 22 23 23 22 22 21 20 20 21 21 20 21 20 19 16 16 17 16 15 14 13 13 13 13 12 10 9 9 9 10 11 12 14 15 16 17 17 18 19 20
22 22 23 24 24 23 23 23 18 16 15 15 14 16 17 15 14 14 14 13 13 12 14 15 15 14 13 13 11 10 10 10 10 10 12 13 15 16 18 19 19 20 20
23 23 23 24 24 24 23 23 24 20 15 15 15 14 14 14 13 13 13 13 13 12 15 14 14 13 12 12 11 11 12 10 9 10 12 13 15 17 19 20 21 20 21
21 22 23 24 24 24 23 23 22 22 22 21 17 15 14 12 12 12 12 12 16 15 16 15 14 13 11 11 11 11 11 10 10 11 12 14 15 17 19 20 20 21 21
22 22 22 23 23 23 22 22 21 21 21 20 19 17 16 13 12 12 11 15 15 16 16 14 13 11 10 10 10 10 9 11 12 13 14 15 15 17 18 19 20 21 21
22 22 21 22 22 23 23 22 22 21 20 19 19 18 16 16 17 17 15 15 13 13 13 13 11 9 9 9 9 9 11 12 13 13 14 15 16 17 18 20 21 22 22
21 22 22 22 23 22 21 21 22 21 21 21 20 19 14 18 18 17 17 16 16 15 11 11 10 8 9 10 10 10 11 12 13 14 15 16 17 18 18 19 21 21 22
23 23 23 23 23 22 22 21 21 21 22 22 21 20 17 20 19 19 18 18 17 16 15 13 13 12 12 12 11 12 13 14 15 16 16 17 18 19 20 21 21 22 22
23 24 24 24 23 23 23 22 22 22 22 22 22 22 22 21 21 20 20 19 18 18 16 16 15 15 14 14 13 13 15 16 16 17 18 19 20 20 20 21 22 23 23
25 24 24 24 24 24 24 23 22 22 22 22 22 22 22 22 22 21 21 20 19 19 18 18 17 17 16 16 16 15 16 16 16 17 18 19 20 21 21 22 22 22 22
27 26 26 25 25 25 24 24 23 23 22 22 22 22 22 22 22 22 22 21 21 21 20 20 19 19 18 18 17 17 16 17 17 18 18 19 20 21 21 21 22 22 21
28 28 29 27 26 25 25 25 24 24 24 23 23 22 22 23 22 22 22 22 22 22 21 21 20 20 18 18 18 18 17 17 18 18 19 20 21 21 21 22 22 22 22

GFSGL_con_lsi_027.txt.gz
Lid_Strength_Index
14 14 14 13 13 14 14 15 15 15 15 15 15 15 16 15 14 15 15 15 15 15 15 15 15 15 14 13 15 14 15 17 15 15 18 17 16 15 15 15 16 16 15
13 13 13 13 14 14 15 15 15 15 15 15 15 16 16 16 15 15 15 14 15 15 14 15 14 14 15 14 15 14 14 15 14 15 19 18 17 15 15 16 17 17 17
14 14 14 14 15 15 15 15 15 16 16 16 16 16 16 16 16 15 15 14 13 13 12 13 14 14 14 14 14 14 14 14 15 14 16 19 18 17 18 17 18 18 18
13 14 15 15 15 15 14 14 15 15 16 15 15 15 15 16 15 15 15 15 15 14 13 12 12 13 13 13 14 14 14 14 15 16 15 19 19 18 16 18 19 19 18
12 13 13 13 13 13 13 13 13 14 14 14 15 15 15 15 15 15 14 14 14 14 13 13 13 12 11 11 13 13 13 14 14 15 15 19 19 19 18 18 17 17 18
11 12 11 11 11 11 11 11 12 12 13 13 14 15 16 14 12 11 11 12 12 13 13 12 12 13 11 10 9 9 11 13 13 13 14 15 16 16 17 17 17 19 20
13 12 12 11 11 11 11 11 12 12 13 14 14 14 14 14 12 12 11 12 13 12 13 13 12 12 12 12 11 9 9 8 9 12 13 13 14 15 16 16 17 17 17
12 13 12 12 12 12 12 13 13 13 13 13 13 14 14 14 12 11 12 13 13 13 13 13 12 12 11 11 12 12 12 11 10 10 11 11 12 14 14 14 15 15 16
12 12 13 14 15 15 16 15 15 15 15 15 14 14 15 15 12 12 12 14 15 15 14 13 13 13 11 9 11 12 12 12 9 8 8 9 9 9 13 14 15 17 18
13 14 14 15 17 18 18 18 18 18 18 17 17 17 17 17 14 13 13 15 16 16 15 14 13 12 11 10 11 12 12 12 12 11 11 9 9 10 10 14 14 17 16
15 16 17 17 19 20 20 20 20 21 20 21 21 20 19 19 18 15 14 16 16 16 16 15 14 11 10 10 8 10 11 11 11 11 12 11 10 10 11 12 14 14 15
18 19 19 21 20 20 22 22 22 22 23 23 22 22 20 19 17 16 15 14 14 17 17 15 14 12 11 9 9 8 7 7 9 11 12 12 11 11 10 11 13 14 13
22 22 22 21 21 21 22 22 23 23 23 23 22 22 22 20 19 16 16 16 15 17 17 16 14 13 12 11 10 8 8 8 9 9 11 12 11 11 10 10 11 13 14
26 22 21 21 21 21 21 22 23 23 24 23 23 22 21 20 18 17 18 19 17 17 17 17 16 14 13 13 12 9 9 9 9 9 9 10 10 11 12 11 12 13 15
22 21 20 21 22 22 22 23 23 22 21 21 20 18 18 18 16 13 13 14 14 14 16 18 18 16 16 15 12 11 12 11 10 9 8 9 10 11 12 12 13 14 15
21 20 21 21 22 21 23 23 19 18 17 15 14 15 16 13 12 12 11 11 10 11 14 16 17 17 17 16 15 13 12 11 10 9 9 9 10 11 11 12 12 14 15
22 21 21 21 22 22 23 23 25 21 17 16 15 14 14 13 12 11 10 10 10 10 14 16 17 17 17 15 14 13 12 10 9 9 9 9 10 11 11 12 13 14 14
23 21 22 22 22 22 22 22 22 23 24 22 18 16 14 14 13 12 10 10 13 13 14 16 17 16 16 16 15 13 11 9 9 8 8 8 10 11 12 13 13 14 14
22 22 22 22 22 22 22 22 22 22 22 22 21 19 18 16 14 14 14 16 17 16 15 14 15 16 16 15 14 13 11 9 9 9 8 9 10 11 13 13 14 14 14
22 22 21 22 23 23 23 22 22 22 22 22 22 22 21 18 21 21 19 19 18 18 17 17 16 14 14 12 13 11 10 9 9 8 9 10 11 11 13 14 14 15 15
22 23 23 23 24 24 23 23 23 23 22 23 22 21 16 21 22 22 21 20 19 19 18 17 14 12 11 10 8 9 9 10 9 9 11 11 11 13 13 14 15 15 16
25 25 25 26 24 24 24 24 23 23 23 23 22 21 17 21 22 22 22 21 20 19 18 17 16 15 14 13 11 11 11 11 11 12 12 12 13 14 14 15 16 17 17
26 26 26 27 25 25 25 25 24 23 23 22 22 22 22 22 22 22 22 22 21 21 20 19 18 17 15 14 14 13 14 14 14 13 14 14 15 15 16 17 17 18 18
29 28 29 28 27 26 27 26 25 24 24 23 23 23 23 22 22 22 22 22 21 21 20 20 19 18 18 16 15 15 15 14 14 14 14 15 16 16 16 17 18 19 19
32 31 31 31 31 28 28 28 26 26 25 24 24 23 23 22 22 22 22 21 21 21 21 20 20 18 17 17 17 16 15 15 15 15 15 16 17 17 18 19 19 19 20
30 31 32 32 32 31 31 29 28 27 27 25 25 24 24 24 23 22 22 21 21 21 21 21 20 19 18 16 16 15 15 15 16 16 16 17 18 19 19 20 20 20 20

GFSGL_con_lsi_030.txt.gz
Lid_Strength_Index
14 14 14 14 14 15 15 15 16 16 16 16 16 16 15 15 15 15 15 15 15 15 15 16 15 14 14 15 15 14 14 13 15 14 17 17 17 16 16 14 14 15 13
14 14 14 14 15 16 16 15 15 15 15 16 16 16 16 16 15 15 15 14 15 16 16 15 15 14 15 14 14 14 15 14 14 15 14 18 17 16 15 15 15 15 15
13 13 13 14 14 14 14 13 13 14 14 15 15 16 15 15 15 16 16 16 15 15 15 15 15 15 15 14 14 14 14 13 15 15 15 17 18 17 17 17 16 17 16
13 13 14 14 14 14 14 14 14 14 14 14 15 16 15 15 15 15 15 16 15 15 15 15 14 14 15 15 14 13 13 13 13 14 15 15 18 17 16 17 18 17 17
13 13 13 13 13 13 13 14 13 14 13 14 14 15 15 15 15 15 15 15 14 14 13 14 14 14 13 13 14 14 14 13 13 13 14 15 18 18 17 16 16 16 16
12 13 12 12 12 12 12 12 12 12 13 13 14 14 14 13 12 11 12 14 14 15 14 13 13 13 13 11 11 10 10 13 14 13 13 13 13 15 14 14 16 17 18
13 14 13 13 13 12 13 13 13 14 14 14 14 14 14 13 11 11 10 12 14 15 15 15 14 13 13 13 11 10 10 9 9 11 13 13 13 12 13 14 15 14 15
13 15 14 13 15 15 15 16 16 16 16 16 16 16 16 15 12 12 12 13 14 14 14 15 15 15 14 13 12 12 12 12 11 11 10 10 10 10 11 12 12 14 13
13 13 14 16 17 17 18 18 17 18 18 18 17 18 18 18 15 14 14 16 16 16 15 15 15 16 14 12 14 14 14 12 10 8 8 8 7 7 7 10 13 14 15
14 15 16 16 20 19 19 19 19 19 19 19 19 19 20 21 17 16 15 17 18 17 16 15 14 14 13 12 13 14 15 14 12 11 11 10 8 8 7 8 11 13 13
16 17 18 18 19 20 20 20 21 21 20 22 21 21 21 20 20 16 14 16 17 17 17 17 16 14 13 13 12 13 13 12 11 10 10 11 11 11 10 9 8 11 12
19 20 20 22 21 20 22 21 22 22 23 23 23 22 21 20 18 16 15 13 13 16 17 16 17 14 14 13 13 13 12 11 11 11 10 11 11 11 10 9 9 9 9
23 25 25 23 21 20 22 22 22 22 23 23 23 23 22 20 20 16 14 13 13 15 15 14 12 12 12 13 13 13 14 15 14 13 11 10 10 9 9 9 8 8 9
29 25 22 22 21 22 20 20 22 23 23 23 23 23 22 20 18 16 16 16 14 14 13 14 14 13 12 13 14 14 14 15 15 14 11 9 8 9 9 8 9 9 9
25 22 21 21 23 21 20 21 20 19 19 20 19 19 19 19 17 14 13 14 13 12 11 12 13 16 18 18 18 16 15 15 16 13 11 10 9 9 9 9 9 9 10
23 21 21 20 20 20 21 21 17 16 15 14 14 15 16 14 13 12 12 11 11 10 12 13 13 14 14 15 16 17 16 15 15 12 11 11 11 10 9 10 9 10 11
26 22 21 20 21 21 22 22 23 20 15 15 15 15 14 14 14 13 12 12 12 12 15 15 15 14 14 14 15 16 16 15 13 13 12 12 11 9 9 9 10 10 12
27 22 22 21 22 22 22 22 22 23 23 21 18 16 15 15 14 13 14 15 21 19 19 18 17 16 15 15 15 15 15 14 14 13 12 12 10 8 9 9 10 11 12
25 23 24 22 21 22 22 22 23 22 23 23 21 19 19 16 15 16 16 22 22 22 20 19 18 18 17 17 14 15 16 16 15 15 13 11 10 8 9 9 9 10 11
27 23 21 24 22 24 23 24 23 23 23 23 23 22 21 19 22 22 22 22 22 22 21 21 19 18 16 14 13 13 14 14 15 14 12 10 9 9 9 9 10 11 11
27 25 23 25 25 26 25 25 24 24 24 24 23 21 15 22 23 23 23 22 22 23 22 21 20 19 17 16 15 13 11 12 12 11 10 9 10 10 9 9 10 10 11
28 28 28 26 25 26 27 25 25 25 25 24 23 22 18 23 23 23 22 21 21 21 21 21 21 19 18 17 16 16 14 13 12 11 11 12 11 11 11 11 11 12 13
28 28 26 25 27 27 28 30 29 27 26 26 25 24 24 24 23 22 22 21 20 20 20 20 20 19 18 17 15 15 16 15 14 12 13 13 12 12 12 13 13 14 15
28 27 24 25 29 30 30 30 29 28 28 28 28 27 25 25 24 23 22 21 20 20 20 20 19 19 18 17 16 16 15 14 14 13 13 14 14 14 14 14 14 14 15
27 25 25 26 33 32 32 32 31 32 31 30 28 28 27 26 25 24 23 22 21 20 20 20 19 19 18 16 16 16 15 15 15 14 14 14 15 15 15 15 15 16 16
23 25 26 29 30 32 34 34 33 32 32 29 28 28 27 27 25 25 24 23 22 21 20 20 20 20 19 16 15 13 13 14 16 15 15 15 16 16 16 17 17 17 18

GFSGL_con_lsi_033.txt.gz
Lid_Strength_Index
14 14 14 14 14 14 14 14 14 14 15 15 16 16 16 16 17 17 16 16 16 16 15 15 15 14 14 13 14 14 15 15 16 14 14 15 16 16 16 15 14 14 13
13 14 14 14 14 14 14 14 14 14 14 14 15 15 15 15 16 17 16 16 16 16 16 16 16 14 14 13 13 14 14 14 15 16 14 14 17 16 16 15 15 14 14
13 13 13 14 14 14 14 14 14 14 14 14 14 15 15 15 15 16 16 15 16 16 15 15 15 15 15 15 14 14 14 13 14 15 15 14 15 16 16 16 15 15 15
13 13 14 14 14 14 14 14 14 14 14 14 14 14 14 15 15 15 15 15 15 15 14 14 15 15 15 15 14 14 14 14 14 14 15 15 15 15 15 16 16 15 15
14 13 14 13 13 14 14 14 14 14 14 14 14 15 14 14 14 14 14 14 15 15 15 14 14 14 13 13 14 13 14 14 14 14 15 15 15 17 16 14 15 13 15
13 14 13 14 14 14 14 14 14 14 14 14 14 15 15 14 12 11 12 13 14 14 14 14 14 15 14 13 12 11 11 13 14 13 14 15 15 15 14 14 15 15 15
15 16 15 14 14 14 15 15 15 16 15 16 16 16 16 16 13 12 12 14 15 15 15 15 14 14 14 14 13 12 12 12 11 12 13 13 13 13 13 14 14 14 14
15 15 15 15 16 16 16 17 17 17 17 17 17 17 17 17 14 14 14 15 16 16 16 16 16 16 15 14 15 15 15 14 13 12 12 13 12 11 11 11 12 13 12
13 14 15 16 18 18 20 19 18 18 19 19 18 19 20 19 16 15 15 17 17 17 16 16 16 16 14 13 15 16 15 15 12 10 10 10 9 8 9 10 12 14 14
14 15 16 17 21 21 19 20 19 20 19 19 19 20 20 21 17 16 15 17 18 17 16 16 14 14 13 12 14 15 16 15 14 13 12 11 10 10 8 9 10 11 13
16 17 18 18 21 21 21 20 21 21 20 22 21 21 21 19 19 16 14 16 17 17 17 16 15 13 12 12 11 14 15 14 14 14 14 13 11 11 10 10 9 9 11
18 19 21 23 22 21 26 23 24 23 23 23 23 22 20 18 17 16 15 14 13 16 17 16 15 12 12 11 11 10 10 10 13 15 16 15 14 12 10 9 9 9 8
21 23 27 24 22 22 25 23 23 24 24 23 22 22 21 18 18 16 14 14 13 15 14 13 11 11 10 10 10 10 11 14 15 17 17 17 16 14 12 9 9 8 8
23 24 23 24 24 24 21 20 22 23 22 21 22 21 20 18 16 16 16 16 14 14 13 14 13 11 10 10 12 12 12 13 15 16 16 15 15 15 14 11 10 9 9
23 22 22 23 24 23 21 21 20 19 18 18 17 17 17 17 16 13 12 14 13 12 12 13 14 14 14 14 15 15 15 15 16 16 16 15 15 15 15 13 9 9 10
22 21 22 22 22 21 21 21 16 14 13 13 12 14 15 13 12 12 12 11 11 12 16 19 19 19 18 17 16 15 14 13 14 14 15 15 15 15 14 13 9 9 10
25 23 23 21 22 22 22 22 23 19 15 15 14 14 13 13 13 12 12 13 15 16 23 22 21 20 20 18 18 17 16 14 13 14 14 14 14 14 11 11 10 10 10
24 23 25 23 23 24 23 22 23 23 24 22 18 16 15 14 13 14 14 18 23 22 23 23 22 21 20 20 19 18 16 15 13 14 14 14 13 13 11 12 12 12 11
25 24 24 24 24 22 23 22 23 23 24 23 22 20 19 16 15 16 17 26 24 24 24 23 22 22 21 20 19 17 15 14 13 14 15 15 14 13 12 11 10 10 11
27 23 23 25 26 26 24 24 24 24 25 24 24 24 22 20 23 23 23 23 23 23 22 22 21 21 21 20 19 18 16 15 13 13 14 14 14 13 13 12 11 10 11
27 27 23 23 25 29 27 26 24 26 26 26 25 23 16 23 25 24 24 23 23 22 21 21 20 20 20 19 19 18 16 15 14 13 12 12 11 11 11 10 10 10 10
25 25 28 30 28 27 28 25 25 27 27 27 25 24 18 25 25 25 24 24 22 21 20 20 20 19 19 19 18 18 17 16 15 15 14 13 13 11 10 10 10 10 11
25 28 30 30 29 27 28 26 27 30 29 29 28 26 27 27 27 26 26 25 23 21 20 19 19 19 19 18 16 16 17 16 16 15 14 14 14 15 16 15 13 13 13
29 29 28 29 29 28 26 26 28 28 29 29 32 31 28 28 28 27 26 25 24 23 22 20 19 19 19 19 17 15 15 15 15 15 15 15 14 14 14 14 14 14 13
33 30 29 28 29 26 26 27 28 33 32 31 31 32 30 29 28 27 26 26 25 24 23 22 20 19 20 20 18 15 13 15 15 15 16 15 16 16 15 15 15 14 14
26 27 27 27 26 26 27 29 30 32 32 32 32 32 31 29 28 28 27 26 26 25 25 23 22 22 21 19 18 14 13 12 15 16 16 16 16 16 16 17 16 16 16

GFSGL_con_lsi_036.txt.gz
Lid_Strength_Index
15 15 15 15 14 14 14 15 15 15 15 15 15 15 15 15 15 16 16 16 16 16 16 16 16 15 15 15 14 14 14 14 16 15 14 13 14 14 13 15 14 14 14
15 14 14 14 14 15 15 15 15 15 14 14 14 15 15 15 15 16 16 16 16 16 16 15 15 14 15 15 16 15 14 14 14 16 15 14 14 13 14 14 14 14 14
14 14 14 14 14 14 14 14 14 15 15 15 15 15 15 15 15 15 15 15 15 15 15 15 15 15 15 15 15 15 15 14 14 15 15 14 14 13 14 14 14 14 14
13 14 14 14 14 14 14 15 15 15 15 16 16 16 16 16 15 15 14 14 14 14 14 14 14 15 15 15 15 14 14 15 14 14 15 15 14 13 14 13 14 14 14
14 14 14 14 14 15 15 16 16 16 16 16 16 16 15 15 14 13 13 13 14 14 13 13 13 13 12 12 14 14 14 15 15 14 15 14 15 15 14 13 14 13 13
14 14 14 15 15 16 17 16 16 16 16 16 15 16 16 15 13 12 12 13 14 14 15 15 14 14 13 12 11 12 12 14 15 15 15 15 15 14 13 13 13 14 15
15 17 17 17 17 17 17 16 16 17 16 17 17 16 17 16 13 12 12 14 14 15 15 15 15 15 15 15 14 13 13 12 12 15 16 16 15 14 13 13 13 13 14
16 17 17 17 18 17 17 17 17 17 17 18 18 18 17 17 14 13 13 14 15 16 16 16 16 16 15 15 15 15 14 14 14 13 14 15 14 14 13 13 13 13 12
16 16 16 17 18 18 20 19 18 19 19 19 17 19 19 19 15 14 14 15 16 16 16 16 16 16 14 13 14 15 15 14 12 11 11 10 10 10 10 12 14 14 15
15 14 16 17 20 21 19 20 20 21 19 18 19 19 19 20 16 14 13 15 17 16 15 15 14 14 12 12 13 15 16 15 14 14 14 13 12 12 11 11 12 14 14
15 16 17 18 20 21 21 21 23 23 20 22 21 20 20 19 19 14 12 13 15 15 15 15 15 13 12 12 11 13 14 13 13 13 13 13 13 13 13 12 11 12 13
17 18 19 21 21 19 26 24 25 25 25 24 23 22 19 18 15 13 12 11 11 14 15 14 14 12 11 10 10 10 9 9 12 14 15 15 15 15 14 13 12 12 12
20 21 22 21 20 20 25 23 23 25 25 23 21 21 20 17 16 13 11 11 10 12 12 12 10 10 10 11 11 10 11 13 14 15 15 15 14 14 13 13 13 13 14
24 21 21 23 21 21 20 20 24 24 23 22 21 21 19 16 15 15 14 12 11 12 11 12 13 13 13 13 14 13 14 13 14 15 15 14 14 14 15 14 15 15 15
23 21 20 20 21 21 20 21 20 20 19 21 18 16 16 16 15 11 11 12 12 12 14 17 20 20 20 19 18 17 16 15 16 15 15 16 15 15 15 14 14 15 17
21 20 20 20 20 20 21 21 16 13 12 11 11 12 14 12 11 11 10 11 12 13 20 24 23 22 22 21 21 20 19 18 17 16 16 15 15 15 15 14 14 15 16
22 20 20 20 20 21 21 22 23 19 14 13 13 13 12 12 12 11 11 12 15 17 27 25 25 24 23 22 22 21 20 18 17 16 16 16 14 14 14 15 14 13 13
23 21 22 21 22 22 23 23 23 23 24 22 17 15 14 13 13 12 13 18 24 24 31 26 25 24 23 23 22 21 20 19 18 17 16 14 13 14 15 14 14 14 11
22 22 22 22 22 22 22 22 23 23 23 24 22 19 19 16 15 16 17 29 26 25 24 24 23 22 22 21 21 20 20 19 18 17 15 14 13 14 15 14 13 12 11
23 21 22 24 23 23 23 24 23 24 25 25 25 23 23 23 29 29 29 30 28 25 24 23 22 21 21 20 20 19 19 18 18 17 16 15 12 12 14 14 13 13 12
25 25 23 26 26 27 27 26 25 26 26 26 25 22 16 22 27 29 27 27 27 25 23 23 22 21 20 19 19 19 19 18 17 16 16 15 14 13 11 11 11 10 10
27 27 29 28 27 27 27 26 26 26 26 25 23 24 18 26 27 27 27 28 27 26 24 23 22 20 20 19 19 19 19 17 17 16 16 16 15 14 14 13 13 11 10
25 25 26 29 29 28 28 29 28 28 26 25 25 26 28 29 30 29 29 28 27 26 25 24 23 22 20 19 19 19 18 16 16 16 17 17 16 15 14 14 14 14 14
27 27 27 28 30 29 28 28 27 25 24 25 29 30 29 29 31 31 29 28 27 27 26 25 24 24 22 21 20 18 18 15 15 16 16 17 16 15 15 15 14 13 13
30 31 31 29 31 28 28 26 25 25 25 27 29 32 31 31 31 32 31 30 29 27 26 26 24 24 24 23 22 21 19 14 16 16 16 17 17 16 16 16 15 14 14
25 26 27 26 27 27 27 25 24 24 26 28 30 31 32 31 31 31 30 30 29 28 28 26 25 26 25 23 22 18 16 11 14 15 16 17 17 17 17 17 17 16 16

GFSGL_con_lsi_039.txt.gz
Lid_Strength_Index
15 15 15 14 14 14 14 14 14 13 14 14 14 14 14 14 14 14 14 14 15 14 14 14 14 13 13 13 13 13 13 13 14 14 12 11 12 11 11 11 11 11 11
15 14 14 14 14 14 14 14 13 14 14 14 14 14 15 15 15 15 15 14 14 15 14 14 14 13 14 13 13 13 13 13 14 15 13 12 12 11 11 11 11 11 12
14 14 14 14 14 14 14 14 14 14 15 15 15 16 16 16 16 15 14 15 15 15 14 14 14 14 14 13 14 14 13 13 13 14 15 13 12 11 11 11 11 11 11
14 14 13 13 13 13 14 14 15 15 16 16 16 16 16 16 16 15 15 15 14 14 13 13 13 14 14 13 13 13 13 13 13 14 14 14 13 12 11 12 13 12 12
14 13 13 13 13 14 15 16 16 16 16 16 17 17 17 16 15 14 13 13 13 13 13 13 13 13 12 12 13 13 13 13 13 14 14 14 14 14 14 12 12 11 11
13 12 12 13 14 15 16 16 16 17 17 17 17 17 17 16 13 12 11 13 13 14 14 14 14 14 14 13 12 12 12 14 14 14 14 14 14 14 14 14 13 13 14
14 14 14 15 15 16 17 17 17 18 17 17 17 16 16 16 13 11 12 13 14 14 15 15 15 15 15 15 14 13 13 12 12 13 14 14 14 14 14 15 15 14 14
14 15 16 16 17 18 18 18 17 17 17 17 17 17 17 16 13 12 12 13 14 14 15 15 15 15 14 14 14 14 14 13 13 13 13 13 12 12 12 12 13 14 13
14 15 16 17 18 18 18 18 17 18 18 18 16 18 18 18 14 13 13 14 14 14 14 14 14 14 12 11 13 13 13 13 11 10 10 10 10 10 10 11 13 14 16
14 14 16 17 18 19 17 18 18 19 17 17 18 18 19 19 16 13 13 13 14 14 13 13 11 11 10 10 12 13 14 13 13 13 12 11 11 11 10 11 12 15 15
15 15 16 17 18 18 19 18 20 20 19 21 20 19 19 18 18 13 11 12 12 13 12 12 12 10 10 9 9 11 12 11 11 12 12 11 11 11 11 11 11 12 14
16 17 18 19 18 19 22 21 22 22 22 22 22 20 18 17 15 13 11 10 10 11 12 11 11 9 9 9 10 10 10 10 12 13 13 13 13 13 12 11 11 11 11
18 19 21 21 20 20 22 20 20 22 22 21 20 19 18 16 15 12 10 10 9 10 10 10 10 11 11 13 13 12 13 14 15 15 15 14 12 12 11 11 11 11 12
20 21 21 21 20 21 19 19 20 20 20 20 20 19 18 17 15 13 13 11 10 10 11 14 14 15 15 15 17 16 16 16 16 17 16 15 14 14 14 13 14 14 14
21 20 20 20 20 19 19 18 18 17 19 22 21 19 18 15 14 10 9 10 10 11 16 19 20 20 20 20 19 19 18 18 18 18 18 17 16 15 14 13 14 14 16
20 20 20 19 19 19 19 19 15 13 12 11 10 10 12 10 10 9 9 9 10 12 20 23 23 22 22 21 21 21 20 20 19 19 18 17 17 16 15 14 13 14 16
20 20 19 19 19 19 20 20 21 18 15 13 11 10 10 10 9 10 9 10 13 16 23 23 23 23 22 22 21 21 21 20 19 18 18 17 16 15 15 14 14 14 14
24 20 20 20 19 20 20 21 21 22 22 20 17 14 12 11 11 10 11 15 23 22 24 24 23 23 22 21 21 21 20 19 18 17 17 17 16 15 15 13 13 14 13
24 22 21 20 21 21 21 21 21 22 21 23 21 19 17 14 12 13 15 23 25 24 24 23 23 22 22 21 20 20 19 19 18 17 17 17 16 15 15 13 13 13 13
25 22 22 22 22 22 21 21 21 22 22 23 22 22 22 22 22 24 24 26 26 25 24 24 23 22 22 21 20 19 19 19 18 17 17 16 16 15 15 14 13 12 13
26 26 23 25 26 25 23 22 22 23 23 24 23 21 15 16 21 23 25 26 26 26 25 24 24 23 22 21 20 19 19 19 18 17 16 16 16 16 15 14 13 12 11
29 29 30 28 26 25 25 23 23 23 23 24 22 22 15 20 21 24 25 26 26 26 26 25 25 24 23 22 20 20 20 19 18 17 16 17 17 16 15 15 13 13 12
30 30 29 29 27 27 27 26 25 25 24 25 24 23 22 22 24 26 26 27 27 27 26 26 25 25 23 23 21 21 20 19 18 17 16 17 17 16 16 15 14 14 13
28 27 26 26 29 28 28 28 28 27 26 25 25 25 23 23 26 28 27 27 28 27 27 27 26 26 25 24 23 22 21 19 17 15 15 16 17 17 16 16 15 15 14
32 28 26 25 27 28 28 28 27 26 26 25 24 24 24 26 28 28 29 29 29 28 28 27 26 26 26 25 25 24 22 20 15 14 16 17 17 18 17 17 17 16 16
28 28 26 24 25 25 26 25 24 23 23 23 24 24 26 28 28 29 29 30 29 28 29 27 27 27 27 25 24 21 18 15 12 15 16 17 18 17 17 17 18 17 17

GFSGL_con_lsi_042.txt.gz
Lid_Strength_Index
13 13 13 12 12 12 12 12 12 12 13 13 13 13 13 12 12 12 12 12 12 12 11 12 12 11 11 11 11 11 11 12 13 12 11 10 10 10 9 9 8 8 9
12 12 12 12 12 12 12 12 12 13 12 13 13 13 13 13 13 13 13 12 13 13 13 13 13 12 12 12 12 12 12 12 13 14 12 12 11 10 10 10 9 9 9
13 12 12 12 12 12 12 12 12 12 13 13 13 14 14 14 13 13 13 13 13 13 13 13 13 13 13 13 13 13 13 12 12 13 14 12 12 11 11 10 10 9 9
13 13 12 12 12 12 12 12 12 13 13 13 13 14 14 14 14 14 13 13 12 12 12 12 12 12 12 12 13 12 12 12 12 12 13 12 12 12 12 12 12 10 10
13 13 12 12 11 11 12 13 13 13 14 14 14 14 14 14 14 13 12 12 12 12 11 11 11 12 12 12 12 12 13 13 13 13 13 13 13 13 13 13 13 12 12
12 12 11 10 11 12 13 13 14 14 14 15 15 15 15 14 13 12 11 11 11 12 12 12 12 12 12 12 12 11 11 13 14 14 14 14 14 13 12 13 14 14 16
12 11 11 11 12 12 13 14 14 14 14 15 14 14 14 13 13 11 11 11 11 12 12 12 13 12 12 13 12 11 11 11 10 12 13 14 14 13 13 13 14 14 14
11 11 11 11 12 13 14 15 14 14 14 14 14 14 14 13 13 12 11 11 12 12 12 12 12 12 12 12 12 12 11 11 10 11 11 11 12 11 11 12 12 12 12
11 11 11 12 13 14 15 14 14 14 14 14 14 14 15 14 14 12 11 11 12 12 12 11 11 12 11 9 10 11 10 10 9 9 9 9 8 8 9 10 12 13 14
10 11 11 12 13 14 14 14 13 14 14 14 14 14 15 16 14 13 11 11 12 11 11 10 9 10 9 9 10 10 11 10 10 9 10 10 9 10 9 10 11 13 13
10 11 12 13 14 14 14 14 15 15 15 15 16 15 15 15 14 12 11 11 11 11 10 10 10 9 9 8 8 10 11 10 11 11 10 10 10 10 10 10 10 11 13
12 13 14 15 15 15 16 16 16 16 16 16 16 15 14 14 13 12 10 9 9 10 11 10 10 9 10 10 10 11 10 11 13 13 13 13 12 12 11 10 10 10 10
14 15 15 16 16 16 16 16 15 15 15 14 14 14 13 13 12 11 10 10 9 10 9 9 10 11 12 12 12 12 13 14 15 15 16 15 14 13 12 12 11 11 11
15 16 16 17 16 17 15 15 15 14 14 14 14 14 13 13 12 11 10 10 9 8 9 11 12 13 13 13 15 14 15 16 17 17 16 15 15 15 14 14 13 13 13
15 16 15 15 16 15 15 14 14 13 13 14 14 14 14 13 11 10 9 8 8 8 11 13 15 15 16 16 16 16 16 16 17 17 17 17 17 16 15 14 14 14 14
15 15 14 14 15 14 14 14 12 11 11 10 9 10 10 10 8 8 8 7 7 9 12 16 16 16 17 17 17 17 17 17 17 17 17 17 17 17 16 15 14 14 14
13 14 14 15 14 14 14 14 14 13 12 11 10 10 9 8 8 8 7 7 10 12 15 16 17 17 18 17 17 17 17 16 17 17 17 16 16 16 15 14 14 13 12
16 16 14 14 14 14 15 15 15 15 15 15 14 13 12 10 9 9 8 9 14 15 17 17 18 18 18 18 18 18 17 17 17 16 16 16 15 15 15 15 14 14 13
17 16 16 15 15 16 16 16 16 16 17 17 17 15 14 12 11 10 11 14 16 17 17 18 18 19 18 18 18 18 18 17 17 17 16 15 15 15 16 15 15 14 14
19 20 19 17 17 17 17 17 17 17 17 17 17 16 15 18 16 15 15 17 17 18 18 19 19 19 19 19 19 18 18 17 17 16 16 15 15 15 16 16 15 14 14
19 19 20 19 18 18 18 18 18 18 18 18 17 16 14 17 16 15 16 17 18 18 20 20 20 20 20 20 19 19 18 18 17 17 16 15 15 16 15 15 15 14 13
21 20 20 21 20 19 19 19 19 19 19 19 18 17 15 15 15 16 17 18 18 19 21 21 21 21 20 20 20 20 19 19 18 17 16 16 15 15 15 15 15 14 14
21 21 21 21 21 22 21 21 21 20 20 19 19 19 19 19 18 18 18 19 20 21 21 21 21 22 21 21 20 20 20 19 18 18 17 16 15 15 15 15 15 15 15
21 21 21 21 21 21 21 21 20 21 22 20 20 20 19 19 20 20 20 20 21 22 22 22 23 23 23 23 21 20 20 20 18 18 17 14 15 15 15 15 15 16 15
22 21 21 21 21 21 21 21 21 21 21 21 20 20 20 20 20 21 21 22 23 24 23 23 23 23 23 23 23 23 22 21 20 17 14 14 15 15 15 15 16 15 16
20 21 21 21 21 21 21 21 21 20 20 20 19 19 19 20 21 21 22 24 24 24 24 23 23 24 24 23 22 21 21 18 16 12 14 14 15 15 15 15 16 15 16

GFSGL_con_lsi_045.txt.gz
Lid_Strength_Index
13 12 12 12 12 12 12 12 12 13 13 13 14 14 14 14 13 13 12 12 12 11 11 11 11 11 11 11 11 11 11 11 14 13 11 11 11 11 10 9 9 10 10
13 12 12 12 12 12 13 12 12 13 13 14 14 14 14 13 13 13 13 12 12 12 12 12 12 12 12 12 12 12 12 12 13 15 13 13 13 12 11 12 11 10 10
13 12 12 13 12 12 12 12 13 13 14 14 14 14 14 13 13 13 13 13 12 12 12 12 12 12 12 12 12 12 12 12 12 13 14 12 12 12 13 12 12 12 10
13 12 12 12 12 12 12 13 13 13 14 14 14 14 14 14 14 13 13 12 12 11 11 11 11 11 12 12 12 12 11 12 12 13 13 13 13 12 12 13 13 12 13
13 13 12 12 12 12 12 13 14 14 14 14 14 14 14 14 14 13 12 12 11 11 11 11 11 11 10 10 11 12 12 13 13 14 14 14 14 14 14 13 14 13 13
13 13 12 12 12 13 13 14 14 14 14 14 14 14 14 14 13 13 11 11 11 11 11 11 11 10 11 10 10 10 10 12 13 14 14 14 13 13 13 13 14 15 16
13 13 13 12 13 14 14 14 14 14 14 14 14 14 14 13 12 12 11 11 11 11 11 11 11 11 11 11 10 10 10 9 9 11 12 12 13 12 12 13 13 13 14
13 13 13 13 13 13 13 13 13 13 14 14 14 14 14 13 12 11 11 11 11 11 11 11 11 11 10 10 11 10 10 10 10 10 10 10 10 10 10 11 12 12 11
13 13 13 13 13 13 13 14 13 13 14 14 14 14 14 13 12 11 11 11 11 11 10 10 10 10 9 8 9 10 10 10 8 7 7 7 7 7 7 9 11 13 14
13 12 12 12 12 13 13 13 13 13 13 14 14 13 14 14 12 11 11 11 11 11 10 9 8 8 8 7 9 11 13 12 12 11 10 10 9 9 8 9 11 14 14
12 12 12 11 12 12 12 13 14 15 14 15 14 14 14 14 14 11 10 11 11 11 10 10 9 8 8 8 8 11 12 11 11 13 13 12 12 11 11 10 10 11 13
12 12 13 13 12 13 14 15 15 15 16 16 15 14 13 13 12 11 10 9 9 10 10 9 9 8 8 9 10 10 10 11 14 14 15 15 14 14 12 12 12 12 11
13 14 14 14 14 15 16 15 16 16 15 14 13 13 12 11 12 10 9 8 8 9 9 8 7 9 9 10 11 11 12 14 15 16 17 16 14 14 13 14 13 13 12
14 15 15 16 15 16 15 14 14 14 14 13 12 12 12 11 11 10 10 10 8 8 8 10 10 9 10 10 12 13 13 14 15 16 16 15 15 16 16 15 15 15 15
13 14 14 15 15 15 15 13 13 12 11 12 11 11 12 12 11 9 9 9 8 8 9 12 12 12 13 13 13 14 14 14 15 15 16 17 17 16 16 16 16 16 17
14 14 13 14 14 14 13 14 11 10 10 9 9 11 12 10 8 8 7 7 6 8 11 13 14 14 14 14 15 15 15 15 15 16 17 16 17 17 17 16 16 16 16
13 13 13 14 13 13 13 13 13 11 9 9 8 8 7 7 7 7 7 7 7 11 14 14 15 15 15 14 15 16 16 16 16 16 16 17 17 17 17 16 16 16 16
15 17 13 14 13 13 13 13 13 14 14 13 11 11 10 9 9 8 8 8 12 13 15 16 16 16 16 16 16 17 17 17 17 17 17 17 17 16 16 16 16 17 17
16 15 15 15 15 15 15 14 15 15 15 15 15 14 13 11 10 9 8 11 13 15 15 16 16 16 16 17 18 18 18 18 18 18 17 17 17 16 16 16 16 17 16
19 20 19 16 16 16 16 16 16 16 17 16 16 16 15 18 18 17 15 15 16 16 16 17 17 17 17 19 19 19 19 19 19 18 18 17 17 16 16 16 16 17 17
18 18 21 19 18 17 17 17 17 18 18 17 17 16 13 17 18 16 16 15 16 17 17 18 18 18 19 20 20 20 20 20 19 19 18 18 17 18 16 15 16 16 16
20 20 20 20 20 19 19 18 19 19 19 19 18 17 14 15 15 15 15 15 16 17 19 20 19 19 20 21 22 21 21 21 21 20 19 19 19 18 16 16 16 16 16
20 20 20 20 20 21 21 20 20 20 20 19 19 19 19 18 18 17 16 16 17 18 20 21 20 20 21 22 21 21 22 22 21 20 20 20 19 18 16 16 16 17 17
20 20 20 20 20 20 20 20 20 20 20 21 21 20 20 19 18 18 17 17 18 19 20 21 21 23 23 24 23 22 22 21 20 21 20 20 19 16 16 17 17 17 16
20 20 20 20 20 20 20 20 20 20 20 20 21 20 20 19 19 19 18 18 20 21 21 22 23 23 24 25 25 25 24 22 23 21 21 19 16 16 18 18 19 18 18
19 20 20 20 20 20 20 20 20 20 20 20 19 19 18 19 18 18 18 19 21 22 22 23 23 24 25 24 25 24 23 20 20 19 16 14 15 21 21 21 21 20 20